Location: La Bilong�re
(48.1297°N, 1.4584°W)
Time: 08:24:00
(UTC+00:00)

Helios 1A Rocket - Pass Details

Date: 03 March 2021
Orbit: 563 x 585 km, 98.3° (Epoch: 11 April)

Event Time Altitude Azimuth Distance (km) Brightness Sun altitude
Rises 19:14:10 0° 171° (S) 2,767 6.2 -14.3°
Reaches altitude 10° 19:16:19 10° 174° (S) 1,871 5.4 -14.6°
Maximum altitude 19:20:21 68° 258° (WSW) 619 3.2 -15.3°
Drops below altitude 10° 19:24:24 10° 341° (NNW) 1,875 5.9 -15.9°
Sets 19:26:33 0° 344° (NNW) 2,775 6.7 -16.3°
